OBJECT D, 60015

Orbit data source: Space-Track

You're viewing an Uncataloged Satellite

Recently launched and/or uncataloged satellites may have evolving metadata. Metadata may include but not limited to: Owner, Maufacturer, Bus, Motor, and Mission.

OBJECT D, 60015 is a satellite owned by Xinghe Dongli (CN) in SSO that was launched on Thu, 06 Jun 2024 UTC via a GUSHENXING 1 launch vehicle from the Jiuquan Satellite Launch Center, China (JSC). Unknown objects in Earth's orbit typically refer to objects detected orbiting the Earth but have not yet been identified or cataloged. These objects could be anything from previously untracked satellites, spent rocket stages, debris from satellite collisions, or even natural meteoroids temporarily captured by Earth's gravity.

Loading next visibility...
Identifier
60015, 2024-110D
Orbit
SSO
Country
Flag of CNCN / PRC
Related business
Flag of CNGalactic Energy Co. (CN)
Manufacturer
Xinghe Dongli
Mission
Commercial Technology
Bus & Motor
LSP, EDGE
Mass
20 kg wet, 20 kg dry
Launch date (UTC)
2024-06-06 (2 years ago)
Launch vehicle
GUSHENXING 1
Launch site
Jiuquan Satellite Launch Center, China (JSC)
Object type
Unknown
Shape & HBR
Box, 0.2 m
Radar Cross Section
0.240 m², Medium (>0.1 m² and < 1m²)

Expand to show TLE details & history
Last TLE update: 7 hours ago

TLE from 7 hours ago
0 OBJECT D
1 60015U 24110D   26127.76881166  .00003534  00000-0  14950-3 0  9998
2 60015  97.5714 224.6086 0010640  41.0470 319.1566 15.23839975106103
Epoch: 2026-05-07T18:27Z
TLE epoch observation values (Epoch: 2026-05-07T18:27:05.327Z)
Latitude
0.00003°
Longitude
82.2262°
Altitude
491.832 km
Speed
7.622 km/s
True Right ascension
14h 58m 26s
True Declination
0° 00' 00"
Sunlit
Object was in full shadow at epoch
Visualization orbit readout
Latitude
Unknown
Longitude
Unknown
Altitude
Unknown
Speed
Unknown
Apparent Right ascension
Unknown
Apparent Declination
Unknown
Sunlit
N/A
Visualization observer readout
Local Sidereal Time
09:45:43
Azimuth
Unknown
Elevation
Unknown
Doppler factor
Unknown
Orbital elements
Apogee altitude
498.548 km
Perigee altitude
483.93 km
Semi-major axis
6,869.376 km
Eccentricity
0.00106
Inclination
97.5714°
RAAN
224.6086°
Arg. of periapsis
41.047°
True anomaly
319.07678°
Mean anomaly
319.1566°
Eccentric anomaly
319.1167°
Mean motion
3.81213 °/min
Orbital period
94.44 mins
BSTAR
0.0001495
Loading maneuver chart data...
Computing Atmospheric mass density...
Loading historical data...
Loading historical data...
Loading historical data...
Loading historical data...
Loading historical data...
Loading historical data...
Loading historical data...
Other satellites on launch #110 in the year 2024 (2024-06-06 UTC)

Documentation

Showing up to 5 results
|